[[{"header":{"parameterUnit":"m.s-1","parameterCategory":1,"la1":30.2991,"la2":30.254,"lo1":-89.0895,"lo2":-89.0444,"dy":0.0017,"dx":0.0017,"nx":28,"ny":28,"refTime":"2025-08-17T03:00:00:Z","depth":0,"parameterNumber":2,"parameterNumberName":"U-component_of_WINDS"},"data":[0,0,0,0,0,0,0,0,0,0,0,0,0,0,0,0,0,0,0,0,0,0,0,0,0,0,0,0,0,0,0,0,0,0,0,0,0,0,0,0,0,0,0,0,0,0,0,0,0,0,0,0,0,0,0,0,0,0,-0.0986,-0.0984,0,-0.0799,-0.0797,-0.0795,-0.0694,-0.0694,-0.0693,-0.0693,-0.05,-0.0495,-0.049,0,0,0,0,0,0,0,0,0,0,0,0,0,-0.1257,-0.1253,-0.0987,-0.0984,-0.0982,-0.08,-0.0797,-0.0795,-0.0694,-0.0694,-0.0693,-0.0693,-0.0502,-0.0496,-0.049,0,0,0,0,0,0,0,0,0,0,0,0,0,-0.1112,-0.1251,-0.0987,-0.091,-0.0901,-0.08,-0.0797,-0.0794,-0.0694,-0.0694,-0.0693,-0.0693,-0.0504,-0.0497,-0.0489,-0.045,0,0,-0.0467,-0.0463,0,0,0,0,0,0,0,0,-0.112,-0.1102,-0.0923,-0.0915,-0.0905,-0.077,-0.0822,-0.0679,-0.0694,-0.0773,-0.0693,-0.0693,-0.059,-0.0576,-0.0541,-0.0441,-0.0433,-0.0466,-0.0461,-0.0458,-0.0456,0,0,0,0,0,0,0,-0.1131,-0.111,-0.0912,-0.0921,-0.091,-0.0885,-0.0864,-0.0794,-0.0685,-0.0766,-0.0758,-0.0737,-0.0585,-0.0548,-0.0536,-0.043,-0.0466,-0.046,-0.0455,-0.0452,-0.0292,-0.0292,0,0,0,0,0,0,-0.1153,-0.1119,-0.0918,-0.0907,-0.1014,-0.088,-0.0857,-0.0813,-0.0686,-0.0666,-0.0738,-0.0733,-0.0561,-0.0545,-0.0529,-0.0476,-0.0458,-0.0451,-0.0447,-0.0291,-0.0292,-0.0292,0,0,0,0,0,0,-0.1159,-0.1136,-0.0926,-0.1011,-0.0982,-0.0876,-0.0828,-0.081,-0.0773,-0.0665,-0.0645,-0.072,-0.056,-0.0539,-0.0471,-0.0468,-0.0448,-0.0441,-0.0291,-0.0291,-0.0292,-0.037,0,0,0,0,0,0,-0.1167,-0.1139,-0.1123,-0.1011,-0.0978,-0.0872,-0.0828,-0.0806,-0.0761,-0.0753,-0.0643,-0.0625,-0.0558,-0.0483,-0.0464,-0.0457,-0.0436,-0.0291,-0.0291,-0.0292,-0.0367,-0.0373,-0.0378,0,0,0,0,0,-0.1177,-0.1152,-0.1123,-0.1099,-0.0955,-0.0872,-0.0853,-0.0777,-0.0761,-0.0744,-0.0675,-0.0628,-0.0472,-0.0477,-0.0455,-0.0446,-0.0291,-0.0291,-0.0292,-0.0365,-0.0372,-0.0378,0,0,0,0,0,0,-0.1264,-0.1135,-0.1102,-0.1039,-0.0967,-0.0855,-0.0831,-0.0787,-0.0718,-0.0713,-0.0622,-0.0598,-0.054,-0.0485,-0.0494,-0.0403,-0.0376,-0.0372,-0.044,-0.0445,-0.0451,-0.0465,-0.0429,0,0,0,0,0,-0.1277,-0.122,-0.111,-0.1065,-0.1031,-0.0938,-0.0898,-0.0847,-0.0768,-0.0737,-0.0663,-0.0589,-0.0523,-0.0481,-0.0414,-0.0359,-0.0335,-0.0343,-0.0348,-0.0353,-0.035,-0.0319,-0.0321,-0.0293,-0.0293,-0.0293,0,0,-0.1301,-0.1223,-0.1192,-0.1081,-0.1019,-0.0962,-0.0912,-0.0854,-0.0811,-0.0728,-0.066,-0.0603,-0.0514,-0.0454,-0.0423,-0.0407,-0.0353,-0.0353,-0.0358,-0.0352,-0.032,-0.0322,-0.0325,-0.0293,-0.0293,-0.0293,0,0,-0.1315,-0.1251,-0.1207,-0.1147,-0.1055,-0.0993,-0.0983,-0.0878,-0.0837,-0.0768,-0.0705,-0.0653,-0.0541,-0.0481,-0.0436,-0.0431,-0.0386,-0.0412,-0.0439,-0.041,-0.0412,-0.0414,-0.0413,-0.0414,-0.041,-0.041,-0.041,0,-0.1356,-0.1268,-0.119,-0.1135,-0.1089,-0.1013,-0.0968,-0.0914,-0.0805,-0.0774,-0.0758,-0.0618,-0.0552,-0.0477,-0.0477,-0.0442,-0.0429,-0.0424,-0.0418,-0.0419,-0.0419,-0.0418,-0.0418,-0.0414,-0.0414,-0.0413,-0.0413,0,-0.1324,-0.1264,-0.124,-0.1138,-0.1089,-0.104,-0.0954,-0.0914,-0.0868,-0.0809,-0.074,-0.0659,-0.0576,-0.0554,-0.0508,-0.0473,-0.0466,-0.0436,-0.0407,-0.0427,-0.0424,-0.0423,-0.042,-0.0418,-0.0417,-0.0416,0,0,-0.1386,-0.1243,-0.1236,-0.1189,-0.1084,-0.1036,-0.0984,-0.0904,-0.0871,-0.0799,-0.0754,-0.0663,-0.0635,-0.0584,-0.053,-0.0505,-0.0508,-0.0477,-0.0473,-0.0486,-0.0466,-0.0491,-0.0491,-0.0478,-0.0477,-0.0477,-0.0474,0,-0.1386,-0.1289,-0.1219,-0.115,-0.1095,-0.1023,-0.0978,-0.0909,-0.0853,-0.0798,-0.0736,-0.0673,-0.064,-0.0609,-0.0581,-0.0514,-0.0503,-0.0513,-0.0435,-0.0434,-0.046,-0.0489,-0.0513,-0.0515,-0.0472,-0.0472,-0.0472,0,-0.1372,-0.1304,-0.123,-0.1132,-0.1106,-0.1067,-0.0989,-0.0937,-0.0858,-0.0819,-0.0765,-0.071,-0.0653,-0.0632,-0.0553,-0.0561,-0.0526,-0.0489,-0.0487,-0.0476,-0.0454,-0.048,-0.0513,-0.0514,-0.0469,-0.0469,-0.047,0,-0.1426,-0.1316,-0.1257,-0.122,-0.1104,-0.1079,-0.103,-0.095,-0.0907,-0.0839,-0.081,-0.0736,-0.0696,-0.064,-0.0568,-0.0558,-0.0497,-0.0469,-0.0464,-0.0466,-0.0453,-0.0455,-0.0481,-0.0431,-0.0431,-0.0431,-0.0431,0,-0.1432,-0.139,-0.128,-0.1245,-0.1196,-0.1116,-0.107,-0.1014,-0.0945,-0.0898,-0.0831,-0.0789,-0.0695,-0.0642,-0.0585,-0.0529,-0.0511,-0.0479,-0.0464,-0.0484,-0.0489,-0.046,-0.0458,-0.043,-0.0431,-0.0431,-0.0431,0,-0.1483,-0.1408,-0.134,-0.1238,-0.1211,-0.118,-0.1091,-0.1055,-0.0996,-0.0938,-0.0919,-0.0827,-0.0761,-0.0684,-0.0591,-0.0553,-0.0503,-0.0481,-0.053,-0.0521,-0.0521,-0.0522,-0.0529,-0.0527,-0.0479,-0.0479,-0.048,0,-0.1493,-0.1459,-0.1353,-0.1317,-0.127,-0.1213,-0.1169,-0.109,-0.1047,-0.0956,-0.0931,-0.086,-0.0799,-0.0696,-0.0621,-0.0551,-0.0527,-0.0535,-0.0516,-0.0539,-0.0528,-0.0531,-0.0528,-0.054,-0.0541,-0.0541,-0.0542,0,-0.1518,-0.1483,-0.1422,-0.135,-0.13,-0.1239,-0.1175,-0.115,-0.1058,-0.1013,-0.0945,-0.0898,-0.0805,-0.0736,-0.0657,-0.0606,-0.0559,-0.0549,-0.0544,-0.0565,-0.0595,-0.058,-0.0544,-0.0549,-0.0548,-0.0548,-0.0547,-0.0547,-0.1548,-0.1515,-0.1437,-0.1372,-0.1317,-0.1259,-0.122,-0.1158,-0.11,-0.1019,-0.0976,-0.0909,-0.0833,-0.0722,-0.0674,-0.0621,-0.0604,-0.0597,-0.0595,-0.0595,-0.0602,-0.0604,-0.0606,-0.0606,-0.0605,-0.0605,-0.0605,0,-0.157,-0.1516,-0.1458,-0.1372,-0.1322,-0.1283,-0.1212,-0.1172,-0.1115,-0.1048,-0.099,-0.0913,-0.0846,-0.0768,-0.0696,-0.0669,-0.0646,-0.0653,-0.0654,-0.0644,-0.062,-0.0631,-0.0673,-0.0673,-0.0673,-0.0673,-0.0673,-0.0673,-0.1575,-0.1519,-0.1475,-0.1391,-0.1337,-0.1272,-0.1235,-0.1182,-0.1129,-0.1046,-0.0991,-0.094,-0.0869,-0.0792,-0.073,-0.0708,-0.0685,-0.0699,-0.0672,-0.0651,-0.0645,-0.0639,-0.065,-0.0695,-0.0695,-0.07,-0.07,-0.07]},{"header":{"parameterUnit":"m.s-1","parameterCategory":1,"la1":30.2991,"la2":30.254,"lo1":-89.0895,"lo2":-89.0444,"dy":0.0017,"dx":0.0017,"nx":28,"ny":28,"refTime":"2025-08-17T03:00:00:Z","depth":0,"parameterNumber":3,"parameterNumberName":"V-component_of_WINDS"},"data":[0,0,0,0,0,0,0,0,0,0,0,0,0,0,0,0,0,0,0,0,0,0,0,0,0,0,0,0,0,0,0,0,0,0,0,0,0,0,0,0,0,0,0,0,0,0,0,0,0,0,0,0,0,0,0,0,0,0,2.6405,2.6405,0,2.6422,2.6422,2.6422,2.6446,2.6446,2.6446,2.6447,2.6462,2.6462,2.6462,0,0,0,0,0,0,0,0,0,0,0,0,0,2.639,2.639,2.6405,2.6405,2.6405,2.6422,2.6422,2.6422,2.6445,2.6446,2.6446,2.6447,2.6462,2.6462,2.6462,0,0,0,0,0,0,0,0,0,0,0,0,0,2.6401,2.639,2.6405,2.6419,2.642,2.6422,2.6422,2.6422,2.6445,2.6446,2.6447,2.6447,2.6462,2.6462,2.6462,2.645,0,0,2.6462,2.6462,0,0,0,0,0,0,0,0,2.64,2.6401,2.6417,2.6418,2.642,2.6432,2.6422,2.6431,2.6445,2.6436,2.6447,2.6447,2.6451,2.6452,2.6454,2.645,2.6451,2.6462,2.6462,2.6462,2.6462,0,0,0,0,0,0,0,2.6399,2.6401,2.6411,2.6417,2.6419,2.6424,2.6426,2.6424,2.644,2.6437,2.6438,2.644,2.6452,2.6454,2.6454,2.6451,2.6462,2.6462,2.6462,2.6462,2.6437,2.6436,0,0,0,0,0,0,2.6397,2.64,2.6411,2.6412,2.6411,2.6423,2.6426,2.6427,2.644,2.6442,2.644,2.6441,2.6453,2.6454,2.6455,2.644,2.6462,2.6462,2.6462,2.6437,2.6436,2.6436,0,0,0,0,0,0,2.6396,2.6398,2.641,2.6406,2.6408,2.6423,2.6425,2.6428,2.6429,2.6442,2.6445,2.6439,2.6454,2.6455,2.6451,2.6441,2.6462,2.6462,2.6438,2.6437,2.6436,2.6411,0,0,0,0,0,0,2.6396,2.6397,2.6394,2.6406,2.6409,2.6406,2.6424,2.6427,2.6429,2.6432,2.6442,2.6444,2.6455,2.645,2.6451,2.6442,2.6462,2.6439,2.6438,2.6436,2.6413,2.641,2.6407,0,0,0,0,0,2.6395,2.6386,2.6393,2.6395,2.6404,2.6406,2.6407,2.642,2.6429,2.6424,2.6433,2.6444,2.6442,2.645,2.645,2.6441,2.644,2.6438,2.6436,2.6415,2.641,2.6407,0,0,0,0,0,0,2.6372,2.6388,2.6396,2.6391,2.6397,2.641,2.6405,2.6415,2.6418,2.642,2.6435,2.6437,2.643,2.6435,2.6443,2.6429,2.6443,2.6441,2.6426,2.6422,2.6419,2.6417,2.6462,0,0,0,0,0,2.6366,2.6367,2.6381,2.6374,2.6377,2.639,2.6391,2.6401,2.6407,2.6409,2.6417,2.6422,2.6423,2.6423,2.6424,2.6414,2.6416,2.6408,2.6405,2.6402,2.64,2.6393,2.639,2.6431,2.6431,2.6431,0,0,2.6354,2.6363,2.6362,2.637,2.6375,2.6374,2.6392,2.6391,2.639,2.6409,2.6405,2.6411,2.6417,2.641,2.6407,2.6414,2.6389,2.64,2.6398,2.6397,2.6391,2.6387,2.6384,2.6429,2.643,2.643,0,0,2.6331,2.6339,2.6334,2.6339,2.6347,2.6356,2.6355,2.6366,2.637,2.6367,2.6381,2.6379,2.638,2.6384,2.6386,2.6363,2.6373,2.6363,2.6346,2.6339,2.6336,2.6333,2.6323,2.632,2.6361,2.6361,2.6361,0,2.6315,2.6315,2.633,2.6327,2.6329,2.6347,2.6341,2.6345,2.6353,2.6353,2.6362,2.6362,2.6368,2.636,2.6355,2.6356,2.6354,2.6362,2.6335,2.6333,2.633,2.6321,2.6317,2.636,2.636,2.636,2.636,0,2.6294,2.6293,2.6288,2.6295,2.6297,2.6293,2.6306,2.6305,2.6314,2.6322,2.6317,2.6324,2.6326,2.6326,2.6334,2.6319,2.6323,2.6333,2.6347,2.6325,2.6316,2.6313,2.6358,2.6359,2.6359,2.6359,0,0,2.6257,2.6272,2.6269,2.6272,2.6282,2.6282,2.6277,2.628,2.6279,2.6283,2.6279,2.6279,2.6288,2.629,2.63,2.6294,2.6273,2.6305,2.6305,2.6297,2.6254,2.6245,2.6241,2.628,2.6279,2.6279,2.6253,0,2.6235,2.6229,2.6242,2.6232,2.6231,2.6247,2.6243,2.6248,2.6255,2.6254,2.6261,2.626,2.6274,2.6275,2.627,2.6277,2.6264,2.6279,2.6275,2.6274,2.6271,2.6237,2.6228,2.6203,2.625,2.6249,2.6249,0,2.6209,2.6212,2.6202,2.6211,2.6211,2.6208,2.621,2.621,2.6215,2.622,2.6222,2.6233,2.6228,2.6242,2.6234,2.6244,2.6243,2.6246,2.6245,2.6244,2.6259,2.6233,2.6195,2.6191,2.6244,2.6245,2.6245,0,2.618,2.6182,2.6177,2.6179,2.619,2.6186,2.6191,2.6197,2.6197,2.6199,2.6199,2.62,2.6201,2.6201,2.6211,2.622,2.6201,2.6217,2.6204,2.6204,2.6198,2.6198,2.6158,2.62,2.62,2.62,2.62,0,2.6154,2.6147,2.6164,2.616,2.6152,2.6166,2.6158,2.6164,2.6169,2.6165,2.618,2.6176,2.619,2.6188,2.6196,2.6187,2.6188,2.619,2.6192,2.6188,2.6188,2.6187,2.6188,2.6199,2.6199,2.62,2.62,0,2.612,2.6132,2.6126,2.6137,2.6139,2.6133,2.6141,2.6138,2.6145,2.6141,2.614,2.6152,2.6149,2.616,2.6159,2.6164,2.6151,2.6157,2.6149,2.615,2.6136,2.6137,2.6093,2.6087,2.6134,2.6134,2.6134,0,2.6102,2.6097,2.6107,2.6106,2.6109,2.6108,2.6108,2.6121,2.6121,2.6126,2.6121,2.612,2.6119,2.6115,2.6122,2.6121,2.6126,2.6111,2.6126,2.6121,2.6123,2.6123,2.6122,2.6107,2.6106,2.6106,2.6106,0,2.6068,2.6073,2.6073,2.6075,2.6075,2.6077,2.6079,2.6077,2.6091,2.609,2.6088,2.6087,2.6087,2.6085,2.6085,2.6088,2.6098,2.6101,2.6097,2.6093,2.6088,2.6088,2.6139,2.6101,2.6102,2.6102,2.6102,2.6103,2.604,2.6036,2.6042,2.6041,2.6044,2.6046,2.6042,2.6049,2.6048,2.6049,2.6056,2.6052,2.6056,2.6058,2.606,2.6056,2.6063,2.6059,2.6057,2.6056,2.6052,2.609,2.6056,2.6057,2.6057,2.6057,2.6057,0,2.6005,2.6009,2.6008,2.6011,2.601,2.6021,2.6024,2.6022,2.6018,2.6022,2.6021,2.6017,2.6015,2.6022,2.6021,2.6016,2.6021,2.6015,2.6015,2.6015,2.6047,2.6049,2.6011,2.6011,2.6011,2.6012,2.6012,2.6012,2.5986,2.5979,2.5985,2.5979,2.5983,2.5979,2.598,2.5981,2.5983,2.5979,2.5977,2.5982,2.5986,2.5985,2.5983,2.5985,2.5983,2.5976,2.5979,2.6009,2.6013,2.6017,2.6019,2.5976,2.5976,2.5947,2.5947,2.5946]}]]